Weather Roundup
Issued by NWS Springfield, MO

Home | Current Version | Previous Version | Text Only | Print | Product List | Glossary On
Versions: 1 2 3 4 5 6 7 8 9 10 11 12 13 14 15 16 17 18 19 20 21 22 23 24 25 26 27 28 29 30 31 32 33 34 35 36 37 38 39 40 41 42 43 44 45 46 47 48 49 50
000
NZUS99 KSGF 290457
HRRSGF

HOURLY WEATHER
NATIONAL WEATHER SERVICE SPRINGFIELD MO
1200 AM CDT THU JUN 29 2017

......SGF CWA......

CITY           SKY/WX    TMP DP  RH WIND       PRES   REMARKS
SPRINGFIELD    CLEAR     74  65  73 S13       29.89F
JOPLIN         PTCLDY    78  68  71 S12       29.87S
WEST PLAINS    CLEAR     74  65  73 S8        29.97S
ROLLA          CLOUDY    74  64  71 S14G22    29.91R

......SURROUNDING SGF CWA......

CITY           SKY/WX    TMP DP  RH WIND       PRES   REMARKS
CHANUTE        CLEAR     79  67  66 S15       29.81F
PARSONS        CLEAR     78  67  68 S8        29.84R
COFFEYVILLE    HAZE      78  68  71 S12       29.83R VSB 1/2
EMPORIA        CLEAR     78  67  68 S17G29    29.77R
HARRISON AR    CLEAR     70  66  87 S6        29.95F

......KANSAS AND MISSOURI......

CITY           SKY/WX    TMP DP  RH WIND       PRES   REMARKS
KANSAS CTY INT PTCLDY    80  68  66 S18G29    29.77R
SEDALIA        PTCLDY    76  68  76 S15       29.85S
ST JOSEPH      PTCLDY    81  70  69 S15G26    29.74R
ST LOUIS       CLOUDY    80  64  58 S7        29.92R
WICHITA        PTCLDY    80  66  62 S18G28    29.76S
TOPEKA         CLOUDY    82  69  64 S15G24    29.74R
OLATHE         CLEAR     78  68  71 S17G28    29.79S

......TENNESSEE......

CITY           SKY/WX    TMP DP  RH WIND       PRES   REMARKS
MEMPHIS        NOT AVBL
NASHVILLE      CLEAR     73  61  65 CALM      30.05R

......ARKANSAS.......

CITY           SKY/WX    TMP DP  RH WIND       PRES   REMARKS
FAYETTEVILLE   CLEAR     73  66  78 S8        29.92
FT SMITH       CLEAR     78  68  71 SE5       29.89S
LITTLE ROCK    CLEAR     74  69  85 CALM      29.95R

......OKLAHOMA.......

CITY           SKY/WX    TMP DP  RH WIND       PRES   REMARKS
TULSA          PTCLDY    81  69  67 S12       29.83R
PONCA CITY     CLEAR     81  65  58 S13G22    29.80R
MCALESTER      CLEAR     80  67  64 S5        29.88S
OKLAHOMA CITY  CLEAR     77  65  66 S16       29.83S

......IOWA............

CITY           SKY/WX    TMP DP  RH WIND       PRES   REMARKS
DES MOINES     NOT AVBL
QUAD CITIES    MOCLDY    79  65  62 SW13      29.68F

......ILLINOIS........

CITY           SKY/WX    TMP DP  RH WIND       PRES   REMARKS
QUINCY         NOT AVBL
CHICAGO        TSTM      67  64  90 NW20G31   29.86R VSB 3/4



USA.gov is the U.S. government's official web portal to all federal, state and local government web resources and services.